#timestamp,LO_Frequency,Hit,StdDev 
1641160815.2,286046998.3,N
1641160835.0,286047000.3,N
1641160835.9,286047000.3,N
1641160855.7,286047002.4,N
1641160875.6,286047000.4,N
1641160895.4,286046998.3,N
1641160915.3,286046998.1,N
1641160935.1,286047000.6,N
1641160936.0,286047000.6,N
1641160955.8,286046998.2,N
1641160975.7,286046999.3,N
1641160995.5,286046999.5,N
1641161015.3,286046997.8,N
1641161035.2,286046997.7,N
1641161055.0,286046999.5,N
1641161055.9,286046999.5,N
1641161075.8,286046997.0,N
1641161095.6,286046998.4,N
1641161115.4,286047001.2,N
1641161135.3,286047000.3,N
1641161155.1,286047003.9,Y
1641161175.9,286047001.6,P
1641161195.7,286047002.2,N
1641161215.5,286047002.4,N
1641161235.4,286047003.7,Y
1641161255.2,286047000.7,P
1641161275.0,286047000.0,N
1641161276.0,286047000.0,N
1641161295.8,286046998.7,N
1641161315.6,286046998.4,N
1641161335.5,286047001.2,N
1641161355.3,286047000.9,N
1641161375.1,286047002.3,N
1641161395.9,286047000.7,N
1641161415.7,286046998.9,N
1641161435.6,286046998.4,N
1641161455.4,286046998.2,N
1641161475.2,286047000.4,N
1641161495.1,286047000.9,N
1641161496.0,286047000.9,N
1641161515.8,286046998.8,N
1641161535.6,286046998.3,N
1641161555.5,286046999.2,N
1641161575.3,286046999.3,N
1641161595.2,286046999.0,N
1641161615.9,286046998.5,N
1641161635.7,286047002.4,N
1641161655.6,286047002.2,N
1641161675.4,286047000.9,N
1641161695.2,286046998.9,N
1641161715.1,286047001.1,N
1641161716.0,286047001.1,N
1641161735.8,286047001.0,N
1641161755.7,286047001.1,N
1641161775.5,286047000.4,N
1641161795.3,286047001.2,N
1641161815.2,286046998.2,N
1641161835.0,286046998.5,N
1641161835.9,286046998.5,N
1641161855.7,286047001.1,N
1641161875.6,286046998.3,N
1641161895.4,286047001.0,N
1641161915.3,286047002.8,N
1641161935.1,286047000.1,N
1641161936.0,286047000.1,N
1641161955.8,286046999.7,N
1641161975.7,286047002.2,N
1641161995.5,286046999.0,N
1641162015.3,286046997.0,N
1641162035.2,286046996.6,N
1641162055.0,286046998.7,N
1641162055.9,286046998.7,N
1641162075.8,286046998.3,N
1641162095.6,286047000.0,N
1641162115.4,286046999.7,N
1641162135.3,286047001.9,N
1641162155.1,286047000.4,N
1641162175.9,286047001.1,N
1641162195.7,286047000.1,N
1641162215.5,286047000.3,N
1641162235.4,286047002.3,N
1641162255.2,286047000.5,N
1641162275.0,286047000.7,N
1641162275.9,286047000.7,N
1641162295.8,286047000.2,N
1641162315.6,286047002.1,N
1641162335.5,286047001.8,N
1641162355.3,286047002.2,N
1641162375.1,286047001.3,N
1641162395.9,286047002.3,N
1641162415.7,286047002.2,N
1641162435.5,286047000.2,N
1641162455.4,286047001.6,N
1641162475.2,286047004.2,N
1641162495.1,286047004.0,N
1641162496.0,286047004.0,N
1641162515.8,286047003.9,N
1641162535.6,286047004.0,N
1641162555.5,286047006.0,Y
1641162575.3,286047003.9,P
1641162595.2,286047001.5,N
1641162615.9,286047001.4,N
1641162635.7,286047003.7,Y
1641162655.6,286047002.4,P
1641162675.4,286047001.9,P
1641162695.3,286047001.7,P
1641162715.1,286047002.0,Y
1641162716.0,286047002.0,P
1641162735.8,286047000.8,P
1641162755.7,286047000.5,N
1641162775.5,286047000.6,N
1641162795.3,286047000.7,N
1641162815.2,286047002.0,Y
1641162835.0,286047000.0,P
1641162835.9,286047000.0,N
1641162855.8,286047001.2,N
1641162875.6,286046998.5,N
1641162895.4,286047000.9,N
1641162915.3,286046998.1,N
1641162935.1,286047000.8,N
1641162955.9,286046998.6,N
1641162975.7,286046998.4,N
1641162995.5,286047000.6,N
1641163015.4,286046999.6,N
1641163035.2,286046994.9,Y
1641163055.1,286046995.1,P
1641163056.0,286046995.1,N
1641163075.8,286046995.5,N
1641163095.6,286046996.9,N
1641163115.5,286046996.9,N
1641163135.3,286046997.1,N
1641163155.2,286046995.0,Y
1641163175.0,286046998.5,P
1641163175.9,286046998.5,N
1641163195.8,286046999.5,N
1641163215.6,286046998.4,N
1641163235.4,286046998.6,N
1641163255.3,286046998.3,N
1641163275.1,286047000.5,N
1641163295.9,286047002.1,N
1641163315.7,286047000.4,N
1641163335.5,286047000.9,N
1641163355.4,286046998.1,N
1641163375.2,286046999.9,N
1641163395.0,286046999.9,N
1641163395.9,286046999.9,N
1641163415.8,286047002.5,N
1641163435.6,286047002.4,N
1641163455.5,286046999.7,N
1641163475.3,286047002.0,N
1641163495.1,286047001.7,N
1641163515.9,286047001.7,N
1641163535.7,286047000.9,N
1641163555.5,286047000.9,N
1641163575.4,286046999.9,N
1641163595.2,286047002.8,N
1641163615.1,286047001.1,N
1641163616.0,286047001.1,N
1641163635.8,286046997.5,N
1641163655.6,286046997.7,N
1641163675.5,286046998.7,N
1641163695.3,286047001.1,N
1641163715.1,286046998.5,N
1641163735.9,286047000.8,N
1641163755.7,286047000.6,N
1641163775.6,286047000.5,N
1641163795.4,286046998.5,N
1641163815.2,286046998.9,N
1641163835.1,286046998.3,N
1641163836.0,286046998.3,N
1641163855.8,286046999.6,N
1641163875.6,286046999.1,N
1641163895.5,286046998.7,N
1641163915.3,286046998.7,N
1641163935.2,286047000.4,N
1641163955.9,286047000.7,N
1641163975.7,286046998.1,N
1641163995.6,286047000.9,N
1641164015.4,286046998.3,N
1641164035.2,286046998.2,N
1641164055.1,286046999.6,N
1641164056.0,286046999.6,N
1641164075.8,286046999.1,N
1641164095.7,286046998.2,N
1641164115.5,286047001.1,N
1641164135.3,286046999.9,N
1641164155.2,286047000.6,N
1641164175.0,286047000.8,N
1641164175.9,286047000.8,N
1641164195.8,286047000.4,N
1641164215.6,286047001.0,N
1641164235.4,286047000.1,N
1641164255.3,286046999.7,N
1641164275.1,286047003.9,Y
1641164295.8,286047004.4,P
1641164315.7,286047001.5,N
1641164335.5,286047001.4,N
1641164355.4,286047002.1,N
1641164375.2,286047001.6,N
1641164395.0,286047002.4,N
1641164395.9,286047002.4,N
